Tracking 29065 objects as of 22-Jul-2024
HD Live streaming from Space Station
objects crossing your sky now

STARLINK-5115

Track STARLINK-5115 now!
10-day predictions
STARLINK-5115 is classified as:


NORAD ID: 53989
Int'l Code: 2022-125AB
Perigee: 545.9 km
Apogee: 548.3 km
Inclination: 53.2 °
Period: 95.4 minutes
Semi major axis: 6918 km
RCS: Unknown
Launch date: October 5, 2022
Source: United States (US)
Launch site: AIR FORCE WESTERN TEST RANGE (AFWTR)
Your satellite tracking list
Your tracking list is empty




NASA's NSSDC Master Catalog

Two Line Element Set (TLE):
1 53989U 22125AB  24203.74220965  .00017229  00000-0  11002-2 0  9999
2 53989  53.2191   9.5128 0001729  96.1336 263.9853 15.08763982 99495
Source of the keplerian elements: AFSPC